Simultaneous Nadir Overpasses (SNOs) Predictions

Prediction of SNOs between NOAA-19 and METOP-C Satellite Orbit:

Table of predicted SNOs for the next 14.0 days since TLE Epoch: 11/13/2021
Index Date (NOAA-19) Time (NOAA-19) Lat,Lon (NOAA-19) SZA (NOAA-19 ) Date (METOP-C) Time (METOP-C) Lat,Lon (METOP-C) SZA (METOP-C ) Distance(km) Time Diff (sec)
1 11/20/2021 00:25:21 -80.69, 24.53 78.11 11/20/2021 00:26:21 -80.68, 24.51 78.09 0.93 60
2 11/20/2021 01:16:18 80.68,-168.12 101.91 11/20/2021 01:17:01 80.68,-168.09 101.93 0.54 43
3 11/20/2021 02:07:21 -80.68, -0.90 78.09 11/20/2021 02:07:43 -80.67, -0.97 78.10 1.95 22
4 11/20/2021 02:58:18 80.68, 166.45 101.93 11/20/2021 02:58:23 80.67, 166.44 101.93 0.78 5
5 11/20/2021 03:49:20 -80.67, -25.98 78.05 11/20/2021 03:49:04 -80.68, -26.10 78.05 2.67 16
6 11/20/2021 04:40:18 80.68, 141.01 101.95 11/20/2021 04:39:45 80.67, 140.96 101.92 1.73 33
7 11/20/2021 05:31:20 -80.67, -51.40 78.03 11/20/2021 05:30:26 -80.67, -51.57 78.06 3.16 54



Historial Predications of SNOs between NOAA-19 and METOP-C
